Regional Weather Roundup
Issued by NWS

Home | Current Version | Previous Version | Graphics & Text | Print | Product List | Glossary On
Versions: 1 2 3 4 5 6 7 8 9 10 11 12 13 14 15 16 17 18 19 20 21 22 23 24 25 26 27 28 29 30 31 32 33 34 35 36 37 38 39 40 41 42 43 44 45 46 47 48 49 50
000
ASUS43 KMKX 210300
RWRWI

WISCONSIN REGIONAL WEATHER ROUNDUP
NATIONAL WEATHER SERVICE MILWAUKEE/SULLIVAN WI
900 PM CST SAT DEC 20 2014

NOTE: "FAIR" INDICATES FEW OR NO CLOUDS BELOW 12,000 FEET WITH NO
SIGNIFICANT WEATHER AND/OR OBSTRUCTIONS TO VISIBILITY.

WIZ001-002-006>008-014>016-023>028-210400-
NORTHWEST WISCONSIN

CITY           SKY/WX    TMP DP  RH WIND       PRES   REMARKS
SUPERIOR ARPT  CLOUDY    32  28  83 SW8       30.09S WCI  25
ASHLAND        CLOUDY    31  26  82 S8        30.12F WCI  23
HAYWARD        CLOUDY    30  25  81 S9        30.10F HAZE    WCI  22
SIREN          CLOUDY    31  27  84 S8        30.10S WCI  24
CUMBERLAND     CLOUDY    30  28  93 S10       30.10S FOG     WCI  21
RICE LAKE      CLOUDY    31  28  87 S10       30.13F FOG     WCI  22
CHETEK         CLOUDY    31  28  90 SE8       30.12F FOG     WCI  23
LADYSMITH      CLOUDY    31  28  92 SE7       30.14F FOG     WCI  24
EAU CLAIRE     CLOUDY    31  26  82 SE7       30.14S WCI  24
MENOMONIE      CLOUDY    31  29  90 SE7       30.13F FOG     WCI  25
NEW RICHMOND   CLOUDY    31  30  94 S10       30.11S FOG     WCI  22
OSCEOLA        CLOUDY    32  31  98 SE8       30.13S WCI  25
$$

WIZ003>005-009-010-017-018-210400-
NORTH CENTRAL WISCONSIN

CITY           SKY/WX    TMP DP  RH WIND       PRES   REMARKS
MANITOWISH WTR CLOUDY    27  26  98 S6        30.11S WCI  20
ARBOR VITAE    CLOUDY    29  27  90 S8        30.12S WCI  21
WOODRUFF       CLOUDY    29  27  90 S8        30.12S WCI  21
RHINELANDER    CLOUDY    27  24  89 SE6       30.14S WCI  20
EAGLE RIVER    CLOUDY    27  27  98 S5        30.13R FOG     WCI  22
LAND O LAKES   CLOUDY    28  27  97 S3        30.13R
PHILLIPS       CLOUDY    28  26  93 S9        30.12S WCI  19
TOMAHAWK       CLOUDY    27  25  91 CALM      30.15R FOG
MEDFORD        CLOUDY    28  26  93 S8        30.14S FOG     WCI  20
MERRILL        CLOUDY    28  26  89 CALM      30.16S
$$

WIZ029-030-035-036-043>047-210400-
CENTRAL WISCONSIN

CITY           SKY/WX    TMP DP  RH WIND       PRES   REMARKS
WAUSAU         CLOUDY    29  24  82 SE8       30.16S WCI  21
MOSINEE        CLOUDY    28  27  93 SE5       30.17F WCI  23
MARSHFIELD     CLOUDY    29  25  85 S7        30.16S FOG     WCI  22
STEVENS POINT  CLOUDY    28  24  88 SE6       30.19S WCI  21
WAUPACA        CLOUDY    30  27  88 SE5       30.22S FOG     WCI  25
WAUTOMA        CLOUDY    30  28  93 S3        30.21F
WISC RAPIDS    CLOUDY    29  24  82 S5        30.19F WCI  24
CAMP DOUGLAS   MOCLDY    30  30 100 SE6       30.18S WCI  24
$$

WIZ011>013-019>022-031-037>040-048>050-210400-
NORTHEAST WISCONSIN

CITY           SKY/WX    TMP DP  RH WIND       PRES   REMARKS
ANTIGO         CLOUDY    25  24  93 S6        30.17R FOG     WCI  18
SHAWANO        CLOUDY    30  25  81 CALM      30.23S
OCONTO         CLOUDY    28  27  96 CALM      30.23S
STURGEON BAY   CLOUDY    27  23  86 CALM      30.24S
GREEN BAY      CLOUDY    29  27  92 CALM      30.23S FOG
MANITOWOC      NOT AVBL
APPLETON       CLOUDY    27  27 100 VRB3      30.22F FOG
CLINTONVILLE   CLOUDY    28  27  93 S5        30.22S WCI  23
OSHKOSH        CLOUDY    27  24  89 CALM      30.22S FOG
$$

WIZ032>034-041-042-053>061-210400-
SOUTHWEST WISCONSIN

CITY           SKY/WX    TMP DP  RH WIND       PRES   REMARKS
LA CROSSE      CLOUDY    33  27  78 S7        30.17F WCI  27
SPARTA         CLOUDY    31  27  84 S7        30.19S FOG     WCI  24
VIROQUA        CLOUDY    29  29 100 SE8       30.15F WCI  21
BOSCOBEL       CLOUDY    33  26  75 CALM      30.20F
PRAIRIE DU CHI CLOUDY    32  28  84 CALM      30.20S FOG
PLATTEVILLE    MOCLDY    31  28  86 CALM      30.19F
$$

WIZ056-057-062-063-064-067-068-210400-
SOUTH CENTRAL WISCONSIN

CITY           SKY/WX    TMP DP  RH WIND       PRES   REMARKS
REEDSBURG      CLOUDY    29  27  90 CALM      30.19S
BARABOO/DELLS  CLOUDY    29  26  86 S7        30.19F FOG     WCI  22
LONE ROCK      NOT AVBL
MINERAL POINT  CLOUDY    32  28  86 SE6       30.18S WCI  26
MADISON        CLOUDY    30  26  85 S7        30.21S WCI  23
MIDDLETON      CLOUDY    31  27  84 S6        30.21F WCI  26
WATERTOWN      CLOUDY    29  28  97 CALM      30.22S FOG
MONROE         CLOUDY    30  28  93 S8        30.20S WCI  23
JANESVILLE     CLOUDY    32  27  80 S5        30.23R WCI  27
$$

WIZ051-052-058>065-066-070>072-210400-
SOUTHEAST WISCONSIN

CITY           SKY/WX    TMP DP  RH WIND       PRES   REMARKS
MILWAUKEE      CLOUDY    31  24  75 S6        30.24S WCI  25
WAUKESHA       CLOUDY    28  25  86 S3        30.23F
MILWAUKEE/TIMM CLOUDY    30  25  80 S5        30.24F WCI  25
RACINE         CLOUDY    31  25  78 S3        30.26S
BURLINGTON     CLOUDY    29  25  86 S3        30.23S
KENOSHA        CLOUDY    31  25  78 S5        30.24S WCI  26
FOND DU LAC    CLOUDY    30  25  81 S6        30.22S WCI  24
SHEBOYGAN      CLOUDY    28  25  88 CALM      30.23S
WEST BEND      CLOUDY    30  27  86 CALM      30.23R
JUNEAU         CLOUDY    29  27  92 SE5       30.23S FOG     WCI  24
$$

LSZ147-162-210400-
LAKE SUPERIOR

STATION/POSITION TIME  TEMP    WIND        PRES    WAVE
                       AIR SEA DIR/SP/G            HT/PER
                 (UTC) (F)     (DEG/KT/KT) (MB)    (FT/S)
DEVILS ISLAND    0200   32     180/  6/  9 1020.8F
PORT WING        0240   32     180/  5/ 11 1019.6F
SAXON HARBOR     0200   32     190/  2/  5 1020.0F
$$

LMZ867-665-643>646-210400-
LAKE MICHIGAN

STATION/POSITION TIME  TEMP    WIND        PRES    WAVE
                       AIR SEA DIR/SP/G            HT/PER
                 (UTC) (F)     (DEG/KT/KT) (MB)    (FT/S)
CHAMBERS ISLAND  0200   28     170/  1/  2 1023.7F
NORTHPORT PIER   0200   29      CALM  /  2 1023.7S
SISTER BAY       0213             CALM       N/A
ALGOMA LAKESHORE 0214          320/  5/  6   N/A
KEWAUNEE LAKESHO 0200   27     300/  1/  3 1022.7F
SHEBOYGAN LAKESH 0200   31 34  220/  5/  6 1025.0F
PORT WASHINGTON  0240   31     240/  3/  5 1024.7S
MILWAUKEE LAKESH 0200   32     230/  6/  8   N/A
KENOSHA   LAKESH 0200   32     200/  3/  5 1024.0F
$$

TC  - TEMPERATURE IN CELSIUS
VSB - VISIBILITY IN STATUTE MILES
WCI - WIND CHILL INDEX
HX  - HEAT INDEX



USA.gov is the U.S. government's official web portal to all federal, state and local government web resources and services.